| time (UTC) | temp F | wind direction | speed MPH | gust MPH | rain 1hr in | rain 24hr in | rain mn in | humidity % | barometer mb |
| 20260507183504 | 65 | 50 | 3.0 | 11.0 | 0.00 | 0.00 | 0.00 | 81 | 1011.6 |
| 20260507183005 | 65 | 48 | 3.0 | 15.0 | 0.00 | 0.00 | 0.00 | 81 | 1011.4 |
| 20260507182504 | 65 | 55 | 4.0 | 15.0 | 0.00 | 0.00 | 0.00 | 81 | 1011.1 |
| 20260507182213 | 65 | 40 | 4.0 | 15.0 | 0.00 | 0.00 | 0.00 | 81 | 1011.2 |
| 20260507181504 | 65 | 49 | 3.0 | 10.0 | 0.00 | 0.00 | 0.00 | 81 | 1011.0 |
| 20260507181003 | 65 | 52 | 3.0 | 10.0 | 0.00 | 0.00 | 0.00 | 81 | 1010.8 |
| 20260507180504 | 65 | 51 | 3.0 | 9.0 | 0.00 | 0.00 | 0.00 | 81 | 1011.1 |
| 20260507180003 | 65 | 53 | 3.0 | 7.0 | 0.00 | 0.00 | 0.00 | 81 | 1011.2 |
| 20260507175504 | 65 | 46 | 4.0 | 11.0 | 0.00 | 0.00 | 0.00 | 81 | 1011.1 |
| 20260507175216 | 65 | 50 | 4.0 | 11.0 | 0.00 | 0.00 | 0.00 | 81 | 1011.3 |
| 20260507174504 | 65 | 58 | 4.0 | 14.0 | 0.00 | 0.00 | 0.00 | 80 | 1011.0 |
| 20260507174217 | 65 | 59 | 4.0 | 14.0 | 0.00 | 0.00 | 0.00 | 80 | 1010.8 |
| 20260507173504 | 65 | 64 | 4.0 | 15.0 | 0.00 | 0.00 | 0.00 | 80 | 1010.7 |
| 20260507173004 | 65 | 53 | 4.0 | 15.0 | 0.00 | 0.00 | 0.00 | 80 | 1010.5 |
| 20260507172503 | 65 | 51 | 4.0 | 10.0 | 0.00 | 0.00 | 0.00 | 80 | 1010.7 |
| 20260507172003 | 65 | 56 | 3.0 | 7.0 | 0.00 | 0.00 | 0.00 | 80 | 1010.9 |
| 20260507171504 | 65 | 42 | 4.0 | 15.0 | 0.00 | 0.00 | 0.00 | 80 | 1011.1 |
| 20260507171214 | 65 | 49 | 4.0 | 15.0 | 0.00 | 0.00 | 0.00 | 81 | 1010.9 |
| 20260507170503 | 65 | 59 | 4.0 | 16.0 | 0.00 | 0.00 | 0.00 | 80 | 1011.0 |
| 20260507170003 | 65 | 53 | 4.0 | 16.0 | 0.00 | 0.00 | 0.00 | 80 | 1011.1 |
| 20260507165503 | 65 | 56 | 4.0 | 13.0 | 0.00 | 0.00 | 0.00 | 80 | 1010.9 |
| 20260507165004 | 65 | 47 | 4.0 | 13.0 | 0.00 | 0.00 | 0.00 | 80 | 1011.4 |
| 20260507164714 | 65 | 43 | 4.0 | 13.0 | 0.00 | 0.00 | 0.00 | 80 | 1011.6 |
| 20260507164004 | 65 | 38 | 3.0 | 13.0 | 0.00 | 0.00 | 0.00 | 80 | 1011.4 |
| 20260507163503 | 65 | 39 | 4.0 | 13.0 | 0.00 | 0.00 | 0.00 | 80 | 1011.5 |
| 20260507163003 | 65 | 52 | 4.0 | 11.0 | 0.00 | 0.00 | 0.00 | 80 | 1011.2 |
| 20260507162716 | 65 | 52 | 4.0 | 16.0 | 0.00 | 0.00 | 0.00 | 79 | 1011.3 |
| 20260507162004 | 65 | 48 | 5.0 | 16.0 | 0.00 | 0.00 | 0.00 | 79 | 1011.0 |
| 20260507161717 | 65 | 53 | 5.0 | 21.0 | 0.00 | 0.00 | 0.00 | 80 | 1010.8 |
| 20260507161003 | 65 | 53 | 5.0 | 21.0 | 0.00 | 0.00 | 0.00 | 79 | 1011.1 |
| 20260507160503 | 65 | 64 | 5.0 | 18.0 | 0.00 | 0.00 | 0.00 | 79 | 1010.7 |
| 20260507160004 | 65 | 77 | 4.0 | 16.0 | 0.00 | 0.00 | 0.00 | 79 | 1010.9 |
| 20260507155504 | 65 | 79 | 5.0 | 16.0 | 0.00 | 0.00 | 0.00 | 80 | 1011.2 |
| 20260507155217 | 65 | 78 | 5.0 | 16.0 | 0.00 | 0.00 | 0.00 | 79 | 1011.2 |
| 20260507154503 | 65 | 48 | 5.0 | 11.0 | 0.00 | 0.00 | 0.00 | 79 | 1011.0 |
| 20260507154005 | 65 | 52 | 5.0 | 18.0 | 0.00 | 0.00 | 0.00 | 79 | 1011.1 |
| 20260507153504 | 65 | 62 | 5.0 | 18.0 | 0.00 | 0.00 | 0.00 | 79 | 1011.2 |
| 20260507153003 | 65 | 68 | 5.0 | 16.0 | 0.00 | 0.00 | 0.00 | 78 | 1011.2 |
| 20260507152717 | 65 | 65 | 4.0 | 10.0 | 0.00 | 0.00 | 0.00 | 78 | 1011.5 |
| 20260507152215 | 65 | 50 | 4.0 | 16.0 | 0.00 | 0.00 | 0.00 | 78 | 1011.4 |
| 20260507151504 | 65 | 56 | 4.0 | 14.0 | 0.00 | 0.00 | 0.00 | 78 | 1011.4 |
| 20260507151216 | 65 | 52 | 5.0 | 10.0 | 0.00 | 0.00 | 0.00 | 78 | 1011.5 |
| 20260507150504 | 65 | 48 | 5.0 | 16.0 | 0.00 | 0.00 | 0.00 | 78 | 1011.3 |
| 20260507150003 | 65 | 44 | 6.0 | 21.0 | 0.00 | 0.00 | 0.00 | 78 | 1011.4 |
| 20260507145504 | 65 | 46 | 5.0 | 21.0 | 0.00 | 0.00 | 0.00 | 78 | 1011.4 |
| 20260507145004 | 65 | 62 | 4.0 | 14.0 | 0.00 | 0.00 | 0.00 | 77 | 1011.3 |
| 20260507144503 | 65 | 44 | 4.0 | 13.0 | 0.00 | 0.00 | 0.00 | 78 | 1011.1 |
| 20260507144003 | 65 | 41 | 5.0 | 21.0 | 0.00 | 0.00 | 0.00 | 77 | 1011.3 |
| 20260507143503 | 65 | 47 | 5.0 | 21.0 | 0.00 | 0.00 | 0.00 | 77 | 1011.0 |
| 20260507143003 | 65 | 53 | 4.0 | 11.0 | 0.00 | 0.00 | 0.00 | 77 | 1011.2 |
| 20260507142503 | 65 | 61 | 5.0 | 18.0 | 0.00 | 0.00 | 0.00 | 78 | 1011.3 |
| 20260507142003 | 65 | 61 | 4.0 | 18.0 | 0.00 | 0.00 | 0.00 | 77 | 1011.5 |
| 20260507141504 | 65 | 52 | 4.0 | 13.0 | 0.00 | 0.00 | 0.00 | 77 | 1011.8 |
| 20260507141003 | 65 | 58 | 6.0 | 21.0 | 0.00 | 0.00 | 0.00 | 77 | 1011.5 |
| 20260507140503 | 65 | 65 | 5.0 | 21.0 | 0.00 | 0.00 | 0.00 | 77 | 1011.5 |
| 20260507140003 | 66 | 51 | 6.0 | 24.0 | 0.00 | 0.00 | 0.00 | 76 | 1011.6 |
| 20260507135715 | 65 | 51 | 7.0 | 24.0 | 0.00 | 0.00 | 0.00 | 76 | 1011.5 |
| 20260507135003 | 66 | 44 | 6.0 | 16.0 | 0.00 | 0.00 | 0.00 | 76 | 1011.6 |
| 20260507134503 | 66 | 34 | 7.0 | 21.0 | 0.00 | 0.00 | 0.00 | 76 | 1011.9 |
| 20260507134214 | 66 | 39 | 7.0 | 21.0 | 0.00 | 0.00 | 0.00 | 75 | 1011.9 |
| 20260507133503 | 66 | 44 | 7.0 | 17.0 | 0.00 | 0.00 | 0.00 | 75 | 1011.9 |
| 20260507133004 | 67 | 37 | 7.0 | 27.0 | 0.00 | 0.00 | 0.00 | 74 | 1011.9 |
| 20260507132504 | 67 | 34 | 8.0 | 27.0 | 0.00 | 0.00 | 0.00 | 73 | 1012.0 |
| 20260507132216 | 66 | 33 | 9.0 | 27.0 | 0.00 | 0.00 | 0.00 | 73 | 1011.8 |
| 20260507131504 | 67 | 51 | 7.0 | 19.0 | 0.00 | 0.00 | 0.00 | 72 | 1011.8 |
| 20260507131004 | 67 | 48 | 6.0 | 18.0 | 0.00 | 0.00 | 0.00 | 73 | 1011.8 |
| 20260507130503 | 68 | 45 | 6.0 | 17.0 | 0.00 | 0.00 | 0.00 | 71 | 1012.1 |
| 20260507130004 | 68 | 59 | 6.0 | 16.0 | 0.00 | 0.00 | 0.00 | 70 | 1012.1 |
| 20260507125504 | 68 | 54 | 7.0 | 24.0 | 0.00 | 0.00 | 0.00 | 71 | 1012.2 |
| 20260507125214 | 68 | 53 | 7.0 | 24.0 | 0.00 | 0.00 | 0.00 | 72 | 1012.2 |
| 20260507124503 | 67 | 57 | 8.0 | 23.0 | 0.00 | 0.00 | 0.00 | 72 | 1012.6 |
| 20260507124004 | 67 | 51 | 8.0 | 29.0 | 0.00 | 0.00 | 0.00 | 72 | 1012.4 |
| 20260507123718 | 67 | 58 | 8.0 | 29.0 | 0.00 | 0.00 | 0.00 | 71 | 1012.5 |
| 20260507123004 | 67 | 51 | 7.0 | 21.0 | 0.00 | 0.00 | 0.00 | 71 | 1012.4 |
| 20260507122714 | 68 | 48 | 7.0 | 21.0 | 0.00 | 0.00 | 0.00 | 70 | 1012.6 |
| 20260507122004 | 68 | 60 | 6.0 | 19.0 | 0.00 | 0.00 | 0.00 | 69 | 1012.4 |
| 20260507121504 | 68 | 55 | 6.0 | 15.0 | 0.00 | 0.00 | 0.00 | 69 | 1012.6 |
| 20260507121004 | 68 | 57 | 7.0 | 19.0 | 0.00 | 0.00 | 0.00 | 70 | 1012.6 |
| 20260507120504 | 68 | 56 | 7.0 | 19.0 | 0.00 | 0.00 | 0.00 | 69 | 1012.5 |
| 20260507120214 | 68 | 53 | 7.0 | 19.0 | 0.00 | 0.00 | 0.00 | 69 | 1012.7 |
| 20260507115504 | 67 | 49 | 8.0 | 25.0 | 0.00 | 0.00 | 0.00 | 70 | 1012.6 |
| 20260507115004 | 68 | 61 | 7.0 | 19.0 | 0.00 | 0.00 | 0.00 | 68 | 1012.5 |
| 20260507114503 | 68 | 62 | 8.0 | 15.0 | 0.00 | 0.00 | 0.00 | 70 | 1012.6 |
| 20260507114004 | 68 | 61 | 7.0 | 25.0 | 0.00 | 0.00 | 0.00 | 67 | 1012.7 |
| 20260507113503 | 68 | 45 | 9.0 | 25.0 | 0.00 | 0.00 | 0.00 | 70 | 1012.3 |
| 20260507113004 | 68 | 44 | 8.0 | 19.0 | 0.00 | 0.00 | 0.00 | 68 | 1012.5 |
| 20260507112503 | 69 | 44 | 7.0 | 25.0 | 0.00 | 0.00 | 0.00 | 67 | 1012.5 |
| 20260507112217 | 68 | 48 | 8.0 | 25.0 | 0.00 | 0.00 | 0.00 | 68 | 1012.7 |
| 20260507111504 | 68 | 53 | 7.0 | 15.0 | 0.00 | 0.00 | 0.00 | 69 | 1012.7 |
| 20260507111003 | 68 | 59 | 7.0 | 21.0 | 0.00 | 0.00 | 0.00 | 68 | 1013.2 |
| 20260507110716 | 68 | 63 | 7.0 | 21.0 | 0.00 | 0.00 | 0.00 | 67 | 1013.0 |
| 20260507110003 | 68 | 45 | 7.0 | 30.0 | 0.00 | 0.00 | 0.00 | 68 | 1013.3 |
| 20260507105503 | 68 | 49 | 7.0 | 30.0 | 0.00 | 0.00 | 0.00 | 68 | 1013.2 |
| 20260507105003 | 68 | 62 | 7.0 | 21.0 | 0.00 | 0.00 | 0.00 | 68 | 1013.2 |
| 20260507104504 | 68 | 55 | 8.0 | 19.0 | 0.00 | 0.00 | 0.00 | 68 | 1013.3 |
| 20260507104004 | 68 | 58 | 8.0 | 27.0 | 0.00 | 0.00 | 0.00 | 65 | 1013.6 |
| 20260507103504 | 69 | 62 | 7.0 | 27.0 | 0.00 | 0.00 | 0.00 | 64 | 1013.5 |
| 20260507103004 | 69 | 64 | 7.0 | 21.0 | 0.00 | 0.00 | 0.00 | 65 | 1013.8 |
| 20260507102504 | 68 | 65 | 7.0 | 23.0 | 0.00 | 0.00 | 0.00 | 68 | 1013.7 |
| 20260507102003 | 68 | 56 | 7.0 | 23.0 | 0.00 | 0.00 | 0.00 | 65 | 1013.5 |
| 20260507101504 | 69 | 53 | 6.0 | 17.0 | 0.00 | 0.00 | 0.00 | 66 | 1013.6 |
| 20260507101004 | 69 | 57 | 6.0 | 24.0 | 0.00 | 0.00 | 0.00 | 65 | 1013.4 |
| 20260507100503 | 68 | 67 | 7.0 | 24.0 | 0.00 | 0.00 | 0.00 | 66 | 1013.6 |
| 20260507100215 | 68 | 63 | 7.0 | 19.0 | 0.00 | 0.00 | 0.00 | 65 | 1013.4 |
| 20260507095718 | 69 | 57 | 7.0 | 21.0 | 0.00 | 0.00 | 0.00 | 62 | 1013.8 |
| 20260507095216 | 69 | 53 | 7.0 | 21.0 | 0.00 | 0.00 | 0.00 | 61 | 1013.7 |
| 20260507094504 | 69 | 50 | 7.0 | 25.0 | 0.00 | 0.00 | 0.00 | 61 | 1013.7 |
| 20260507094004 | 68 | 55 | 8.0 | 25.0 | 0.00 | 0.00 | 0.00 | 63 | 1013.6 |
| 20260507093503 | 69 | 60 | 7.0 | 18.0 | 0.00 | 0.00 | 0.00 | 63 | 1013.8 |
| 20260507093003 | 69 | 59 | 6.0 | 19.0 | 0.00 | 0.00 | 0.00 | 62 | 1014.0 |
| 20260507092503 | 68 | 46 | 7.0 | 19.0 | 0.00 | 0.00 | 0.00 | 62 | 1013.7 |
| 20260507092003 | 68 | 38 | 7.0 | 15.0 | 0.00 | 0.00 | 0.00 | 64 | 1013.6 |
| 20260507091717 | 68 | 45 | 7.0 | 21.0 | 0.00 | 0.00 | 0.00 | 65 | 1013.6 |
| 20260507091214 | 67 | 50 | 7.0 | 21.0 | 0.00 | 0.00 | 0.00 | 66 | 1013.8 |
| 20260507090718 | 67 | 43 | 7.0 | 30.0 | 0.00 | 0.00 | 0.00 | 67 | 1014.0 |
| 20260507090005 | 67 | 48 | 7.0 | 30.0 | 0.00 | 0.00 | 0.00 | 67 | 1013.7 |
| 20260507085504 | 67 | 55 | 7.0 | 17.0 | 0.00 | 0.00 | 0.00 | 68 | 1013.7 |
| 20260507085003 | 67 | 55 | 7.0 | 13.0 | 0.00 | 0.00 | 0.00 | 69 | 1013.6 |
| 20260507084504 | 67 | 59 | 7.0 | 19.0 | 0.00 | 0.00 | 0.00 | 70 | 1013.7 |
| 20260507084218 | 67 | 58 | 7.0 | 19.0 | 0.00 | 0.00 | 0.00 | 70 | 1013.8 |
| 20260507083503 | 67 | 63 | 7.0 | 21.0 | 0.00 | 0.00 | 0.00 | 70 | 1013.9 |
| 20260507083004 | 67 | 49 | 7.0 | 21.0 | 0.00 | 0.00 | 0.00 | 70 | 1013.7 |
| 20260507082503 | 67 | 42 | 6.0 | 19.0 | 0.00 | 0.00 | 0.00 | 69 | 1013.4 |
| 20260507082003 | 67 | 49 | 6.0 | 27.0 | 0.00 | 0.00 | 0.00 | 67 | 1013.5 |
| 20260507081717 | 67 | 51 | 7.0 | 27.0 | 0.00 | 0.00 | 0.00 | 69 | 1013.4 |
| 20260507081004 | 67 | 51 | 6.0 | 19.0 | 0.00 | 0.00 | 0.00 | 70 | 1013.3 |
| 20260507080503 | 67 | 50 | 6.0 | 16.0 | 0.00 | 0.00 | 0.00 | 69 | 1013.6 |
| 20260507080216 | 67 | 52 | 5.0 | 15.0 | 0.00 | 0.00 | 0.00 | 68 | 1013.3 |
| 20260507075504 | 67 | 67 | 5.0 | 22.0 | 0.00 | 0.00 | 0.00 | 70 | 1013.8 |
| 20260507075004 | 67 | 56 | 5.0 | 19.0 | 0.00 | 0.00 | 0.00 | 71 | 1013.7 |
| 20260507074715 | 67 | 67 | 5.0 | 19.0 | 0.00 | 0.00 | 0.00 | 72 | 1013.6 |
| 20260507074003 | 67 | 74 | 7.0 | 19.0 | 0.00 | 0.00 | 0.00 | 72 | 1013.7 |
| 20260507073503 | 66 | 60 | 6.0 | 17.0 | 0.00 | 0.00 | 0.00 | 72 | 1013.9 |
| 20260507073004 | 66 | 38 | 6.0 | 17.0 | 0.00 | 0.00 | 0.00 | 73 | 1013.8 |
| 20260507072503 | 67 | 44 | 5.0 | 17.0 | 0.00 | 0.00 | 0.00 | 71 | 1013.9 |
| 20260507072004 | 66 | 69 | 6.0 | 23.0 | 0.00 | 0.00 | 0.00 | 73 | 1013.7 |
| 20260507071504 | 66 | 76 | 6.0 | 23.0 | 0.00 | 0.00 | 0.00 | 74 | 1013.9 |
| 20260507071004 | 66 | 74 | 6.0 | 18.0 | 0.00 | 0.00 | 0.00 | 72 | 1013.9 |
| 20260507070714 | 66 | 65 | 5.0 | 9.0 | 0.00 | 0.00 | 0.00 | 73 | 1013.9 |
| 20260507070217 | 66 | 48 | 5.0 | 19.0 | 0.00 | 0.00 | 0.00 | 73 | 1014.2 |
| 20260507065503 | 66 | 47 | 4.0 | 17.0 | 0.00 | 0.00 | 0.00 | 75 | 1013.9 |
| 20260507065213 | 66 | 50 | 4.0 | 17.0 | 0.00 | 0.00 | 0.00 | 74 | 1014.3 |
| 20260507064716 | 65 | 45 | 5.0 | 17.0 | 0.00 | 0.00 | 0.00 | 76 | 1014.1 |
| 20260507064213 | 65 | 63 | 5.0 | 10.0 | 0.00 | 0.00 | 0.00 | 79 | 1014.3 |
| 20260507063503 | 65 | 59 | 6.0 | 19.0 | 0.00 | 0.00 | 0.00 | 80 | 1014.2 |
| 20260507063003 | 64 | 60 | 6.0 | 18.0 | 0.00 | 0.00 | 0.00 | 82 | 1014.1 |
| 20260507062504 | 64 | 72 | 5.0 | 17.0 | 0.00 | 0.00 | 0.00 | 82 | 1014.2 |
| 20260507062003 | 64 | 73 | 5.0 | 14.0 | 0.00 | 0.00 | 0.00 | 83 | 1014.3 |
| 20260507061503 | 64 | 69 | 4.0 | 16.0 | 0.00 | 0.00 | 0.00 | 84 | 1014.1 |
| 20260507061217 | 64 | 71 | 4.0 | 16.0 | 0.00 | 0.00 | 0.00 | 84 | 1014.1 |
| 20260507060714 | 64 | 66 | 4.0 | 9.0 | 0.00 | 0.00 | 0.00 | 85 | 1014.1 |
| 20260507060004 | 63 | 69 | 5.0 | 18.0 | 0.00 | 0.00 | 0.00 | 86 | 1014.3 |
| 20260507055503 | 63 | 67 | 5.0 | 18.0 | 0.00 | 0.00 | 0.00 | 85 | 1014.4 |
| 20260507055213 | 63 | 69 | 4.0 | 16.0 | 0.00 | 0.00 | 0.00 | 85 | 1014.4 |
| 20260507054716 | 63 | 71 | 4.0 | 14.0 | 0.00 | 0.00 | 0.00 | 86 | 1014.4 |
| 20260507054004 | 63 | 82 | 4.0 | 14.0 | 0.00 | 0.00 | 0.00 | 85 | 1014.3 |
| 20260507053503 | 63 | 78 | 3.0 | 11.0 | 0.00 | 0.00 | 0.00 | 84 | 1014.2 |
| 20260507053004 | 63 | 67 | 3.0 | 11.0 | 0.00 | 0.00 | 0.00 | 84 | 1014.4 |
| 20260507052503 | 63 | 51 | 4.0 | 11.0 | 0.00 | 0.00 | 0.00 | 84 | 1014.2 |
| 20260507052004 | 63 | 45 | 4.0 | 11.0 | 0.00 | 0.00 | 0.00 | 83 | 1014.1 |
| 20260507051503 | 63 | 61 | 4.0 | 7.0 | 0.00 | 0.00 | 0.00 | 83 | 1014.1 |
| 20260507051003 | 62 | 61 | 4.0 | 13.0 | 0.00 | 0.00 | 0.00 | 83 | 1014.1 |
| 20260507050503 | 63 | 53 | 4.0 | 13.0 | 0.00 | 0.00 | 0.00 | 85 | 1014.2 |
| 20260507050003 | 62 | 58 | 3.0 | 10.0 | 0.00 | 0.00 | 0.00 | 84 | 1014.3 |
| 20260507045503 | 62 | 58 | 3.0 | 10.0 | 0.00 | 0.00 | 0.00 | 84 | 1014.1 |
| 20260507045003 | 62 | 45 | 3.0 | 7.0 | 0.00 | 0.00 | 0.00 | 84 | 1013.8 |
| 20260507044504 | 62 | 55 | 4.0 | 13.0 | 0.00 | 0.00 | 0.00 | 84 | 1014.0 |
| 20260507044004 | 62 | 74 | 3.0 | 13.0 | 0.00 | 0.00 | 0.00 | 84 | 1014.1 |
| 20260507043503 | 62 | 69 | 3.0 | 9.0 | 0.00 | 0.00 | 0.00 | 84 | 1014.1 |
| 20260507043004 | 62 | 59 | 2.0 | 7.0 | 0.00 | 0.00 | 0.00 | 84 | 1014.0 |
| 20260507042503 | 62 | 67 | 2.0 | 9.0 | 0.00 | 0.00 | 0.00 | 84 | 1014.1 |
| 20260507042003 | 62 | 76 | 2.0 | 9.0 | 0.00 | 0.00 | 0.00 | 83 | 1014.1 |
| 20260507041503 | 62 | 70 | 2.0 | 7.0 | 0.00 | 0.00 | 0.00 | 82 | 1013.9 |
| 20260507041003 | 62 | 56 | 1.0 | 4.0 | 0.00 | 0.00 | 0.00 | 80 | 1014.0 |
| 20260507040503 | 62 | 57 | 2.0 | 8.0 | 0.00 | 0.00 | 0.00 | 78 | 1014.0 |
| 20260507040003 | 63 | 62 | 1.0 | 8.0 | 0.00 | 0.00 | 0.00 | 77 | 1014.0 |
| 20260507035504 | 62 | 56 | 1.0 | 7.0 | 0.00 | 0.00 | 0.00 | 79 | 1014.2 |
| 20260507035004 | 63 | 43 | 1.0 | 6.0 | 0.00 | 0.00 | 0.00 | 78 | 1014.2 |
| 20260507034718 | 63 | 39 | 1.0 | 6.0 | 0.00 | 0.00 | 0.00 | 77 | 1014.5 |
| 20260507034003 | 63 | 43 | 1.0 | 4.0 | 0.00 | 0.00 | 0.00 | 74 | 1014.4 |
| 20260507033503 | 62 | 67 | 1.0 | 4.0 | 0.00 | 0.00 | 0.00 | 79 | 1014.3 |
| 20260507033004 | 63 | 91 | 1.0 | 4.0 | 0.00 | 0.00 | 0.00 | 78 | 1014.5 |
| 20260507032503 | 63 | 107 | 1.0 | 3.0 | 0.00 | 0.00 | 0.00 | 78 | 1014.6 |
| 20260507032004 | 63 | 50 | 1.0 | 6.0 | 0.00 | 0.00 | 0.00 | 76 | 1014.5 |
| 20260507031504 | 63 | 44 | 1.0 | 6.0 | 0.00 | 0.00 | 0.00 | 75 | 1014.5 |
| 20260507031004 | 63 | 68 | 1.0 | 3.0 | 0.00 | 0.00 | 0.00 | 74 | 1014.4 |
| 20260507030503 | 63 | 50 | 1.0 | 7.0 | 0.00 | 0.00 | 0.00 | 73 | 1014.5 |
| 20260507030003 | 64 | 39 | 1.0 | 7.0 | 0.00 | 0.00 | 0.00 | 72 | 1014.6 |
| 20260507025503 | 64 | 40 | 0.0 | 2.0 | 0.00 | 0.00 | 0.00 | 70 | 1014.7 |
| 20260507025004 | 64 | 45 | 1.0 | 6.0 | 0.00 | 0.00 | 0.00 | 68 | 1014.6 |
| 20260507024503 | 64 | 39 | 1.0 | 6.0 | 0.00 | 0.00 | 0.00 | 65 | 1014.5 |
| 20260507024003 | 64 | 37 | 1.0 | 6.0 | 0.00 | 0.00 | 0.00 | 64 | 1014.4 |
| 20260507023504 | 64 | 75 | 1.0 | 3.0 | 0.00 | 0.00 | 0.00 | 63 | 1014.1 |
| 20260507023004 | 64 | 88 | 1.0 | 3.0 | 0.00 | 0.00 | 0.00 | 63 | 1014.3 |
| 20260507022503 | 64 | 92 | 1.0 | 2.0 | 0.00 | 0.00 | 0.00 | 64 | 1014.3 |
| 20260507022003 | 64 | 75 | 1.0 | 6.0 | 0.00 | 0.00 | 0.00 | 63 | 1014.0 |
| 20260507021504 | 64 | 63 | 1.0 | 6.0 | 0.00 | 0.00 | 0.00 | 62 | 1014.0 |
| 20260507021004 | 64 | 73 | 1.0 | 4.0 | 0.00 | 0.00 | 0.00 | 60 | 1013.9 |
| 20260507020503 | 64 | 91 | 1.0 | 2.0 | 0.00 | 0.00 | 0.00 | 61 | 1014.0 |
| 20260507020004 | 64 | 88 | 1.0 | 6.0 | 0.00 | 0.00 | 0.00 | 64 | 1014.0 |
| 20260507015713 | 64 | 85 | 1.0 | 6.0 | 0.00 | 0.00 | 0.00 | 63 | 1014.1 |
| 20260507015004 | 65 | 50 | 1.0 | 4.0 | 0.00 | 0.00 | 0.00 | 60 | 1014.0 |
| 20260507014503 | 64 | 94 | 1.0 | 4.0 | 0.00 | 0.00 | 0.00 | 62 | 1014.1 |
| 20260507014004 | 63 | 115 | 1.0 | 3.0 | 0.00 | 0.00 | 0.00 | 68 | 1014.0 |
| 20260507013715 | 63 | 109 | 1.0 | 2.0 | 0.00 | 0.00 | 0.00 | 68 | 1014.1 |
| 20260507013004 | 64 | 104 | 1.0 | 3.0 | 0.00 | 0.00 | 0.00 | 68 | 1014.1 |
| 20260507012504 | 63 | 95 | 1.0 | 2.0 | 0.00 | 0.00 | 0.00 | 67 | 1014.2 |
| 20260507012003 | 63 | 56 | 0.0 | 2.0 | 0.00 | 0.00 | 0.00 | 67 | 1014.4 |
| 20260507011503 | 63 | 78 | 0.0 | 2.0 | 0.00 | 0.00 | 0.00 | 67 | 1014.4 |
| 20260507011003 | 63 | 99 | 0.0 | 2.0 | 0.00 | 0.00 | 0.00 | 70 | 1014.5 |
| 20260507010503 | 63 | 83 | 0.0 | 2.0 | 0.00 | 0.00 | 0.00 | 70 | 1014.7 |
| 20260507010004 | 63 | 98 | 1.0 | 3.0 | 0.00 | 0.00 | 0.00 | 71 | 1014.7 |
| 20260507005504 | 63 | 94 | 1.0 | 3.0 | 0.00 | 0.00 | 0.00 | 72 | 1014.6 |
| 20260507005004 | 63 | 97 | 1.0 | 2.0 | 0.00 | 0.00 | 0.00 | 75 | 1014.6 |
| 20260507004714 | 63 | 115 | 1.0 | 4.0 | 0.00 | 0.00 | 0.00 | 76 | 1014.5 |
| 20260507004003 | 63 | 115 | 1.0 | 4.0 | 0.00 | 0.00 | 0.00 | 76 | 1014.5 |
| 20260507003503 | 63 | 101 | 1.0 | 3.0 | 0.00 | 0.00 | 0.00 | 77 | 1014.5 |
| 20260507003003 | 63 | 88 | 1.0 | 3.0 | 0.00 | 0.00 | 0.00 | 77 | 1014.7 |
| 20260507002503 | 62 | 77 | 0.0 | 3.0 | 0.00 | 0.00 | 0.00 | 78 | 1014.8 |
| 20260507002003 | 62 | 95 | 0.0 | 3.0 | 0.00 | 0.00 | 0.00 | 78 | 1015.1 |
| 20260507001504 | 62 | 105 | 0.0 | 3.0 | 0.00 | 0.00 | 0.00 | 79 | 1015.0 |
| 20260507001003 | 62 | 108 | 0.0 | 2.0 | 0.00 | 0.00 | 0.00 | 80 | 1015.1 |
| 20260507000503 | 62 | 137 | 1.0 | 2.0 | 0.00 | 0.00 | 0.00 | 80 | 1015.2 |
| 20260507000216 | 62 | 146 | 1.0 | 1.0 | 0.00 | 0.00 | 0.00 | 80 | 1015.3 |
| 20260506235504 | 62 | 132 | 1.0 | 3.0 | 0.00 | 0.00 | 0.00 | 80 | 1015.3 |
| 20260506235004 | 62 | 142 | 0.0 | 2.0 | 0.00 | 0.00 | 0.00 | 80 | 1015.2 |
| 20260506234503 | 62 | 135 | 0.0 | 2.0 | 0.00 | 0.00 | 0.00 | 80 | 1015.4 |
| 20260506234003 | 62 | 104 | 1.0 | 4.0 | 0.00 | 0.00 | 0.00 | 80 | 1015.4 |
| 20260506233503 | 62 | 98 | 1.0 | 4.0 | 0.00 | 0.00 | 0.00 | 81 | 1015.1 |
| 20260506233004 | 62 | 72 | 0.0 | 2.0 | 0.00 | 0.00 | 0.00 | 81 | 1015.2 |
| 20260506232717 | 62 | 56 | 1.0 | 2.0 | 0.00 | 0.00 | 0.00 | 82 | 1015.3 |
| 20260506232003 | 62 | 49 | 1.0 | 3.0 | 0.00 | 0.00 | 0.00 | 82 | 1015.3 |
| 20260506231503 | 62 | 58 | 1.0 | 3.0 | 0.00 | 0.00 | 0.00 | 82 | 1015.5 |
| 20260506230503 | 62 | 40 | 1.0 | 7.0 | 0.00 | 0.00 | 0.00 | 82 | 1015.6 |
| 20260506230003 | 62 | 50 | 1.0 | 7.0 | 0.00 | 0.00 | 0.00 | 82 | 1015.6 |
| 20260506225504 | 62 | 76 | 1.0 | 4.0 | 0.00 | 0.00 | 0.00 | 81 | 1015.4 |
| 20260506225003 | 62 | 74 | 1.0 | 3.0 | 0.00 | 0.00 | 0.00 | 81 | 1015.4 |
| 20260506224714 | 62 | 54 | 1.0 | 3.0 | 0.00 | 0.00 | 0.00 | 81 | 1015.4 |
| 20260506224004 | 63 | 54 | 1.0 | 4.0 | 0.00 | 0.00 | 0.00 | 81 | 1015.6 |
| 20260506223504 | 63 | 75 | 1.0 | 4.0 | 0.00 | 0.00 | 0.00 | 82 | 1015.7 |
| 20260506223003 | 63 | 83 | 1.0 | 3.0 | 0.00 | 0.00 | 0.00 | 83 | 1015.8 |
| 20260506222503 | 63 | 72 | 1.0 | 6.0 | 0.00 | 0.00 | 0.00 | 83 | 1015.8 |
| 20260506222003 | 63 | 56 | 1.0 | 6.0 | 0.00 | 0.00 | 0.00 | 83 | 1015.6 |
| 20260506221504 | 63 | 70 | 1.0 | 4.0 | 0.00 | 0.00 | 0.00 | 83 | 1015.9 |
| 20260506221004 | 63 | 67 | 1.0 | 4.0 | 0.00 | 0.00 | 0.00 | 83 | 1015.9 |
| 20260506220503 | 63 | 55 | 1.0 | 3.0 | 0.00 | 0.00 | 0.00 | 84 | 1015.9 |
| 20260506220008 | 63 | 55 | 1.0 | 4.0 | 0.00 | 0.00 | 0.00 | 85 | 1015.7 |
| 20260506215503 | 63 | 58 | 1.0 | 6.0 | 0.00 | 0.00 | 0.00 | 85 | 1015.8 |
| 20260506215003 | 63 | 56 | 1.0 | 6.0 | 0.00 | 0.00 | 0.00 | 85 | 1015.9 |
| 20260506214504 | 63 | 38 | 2.0 | 5.0 | 0.00 | 0.00 | 0.00 | 85 | 1016.1 |
| 20260506214004 | 63 | 33 | 2.0 | 8.0 | 0.00 | 0.00 | 0.00 | 85 | 1016.3 |
| 20260506213504 | 63 | 40 | 2.0 | 8.0 | 0.00 | 0.00 | 0.00 | 85 | 1015.8 |
| 20260506213214 | 63 | 46 | 2.0 | 4.0 | 0.00 | 0.00 | 0.00 | 85 | 1016.1 |
| 20260506212503 | 63 | 74 | 2.0 | 7.0 | 0.00 | 0.00 | 0.00 | 85 | 1015.8 |
| 20260506212003 | 63 | 71 | 2.0 | 7.0 | 0.00 | 0.00 | 0.00 | 85 | 1016.0 |
| 20260506211503 | 63 | 60 | 2.0 | 6.0 | 0.00 | 0.00 | 0.00 | 85 | 1016.0 |
| 20260506211003 | 63 | 62 | 2.0 | 8.0 | 0.00 | 0.00 | 0.00 | 85 | 1016.1 |
| 20260506210714 | 63 | 62 | 2.0 | 8.0 | 0.00 | 0.00 | 0.00 | 86 | 1016.0 |
| 20260506210004 | 63 | 52 | 1.0 | 7.0 | 0.00 | 0.00 | 0.00 | 86 | 1016.0 |
| 20260506205715 | 63 | 50 | 1.0 | 6.0 | 0.00 | 0.00 | 0.00 | 86 | 1015.8 |
| 20260506205004 | 63 | 44 | 2.0 | 6.0 | 0.00 | 0.00 | 0.00 | 86 | 1015.7 |
| 20260506204504 | 63 | 43 | 2.0 | 10.0 | 0.00 | 0.00 | 0.00 | 86 | 1015.7 |
| 20260506204004 | 63 | 55 | 3.0 | 10.0 | 0.00 | 0.00 | 0.00 | 86 | 1015.6 |
| 20260506203717 | 63 | 64 | 2.0 | 9.0 | 0.00 | 0.00 | 0.00 | 86 | 1015.3 |
| 20260506203004 | 63 | 51 | 3.0 | 11.0 | 0.00 | 0.00 | 0.00 | 86 | 1015.1 |
| 20260506202503 | 63 | 52 | 3.0 | 11.0 | 0.00 | 0.00 | 0.00 | 86 | 1014.8 |
| 20260506202003 | 63 | 66 | 3.0 | 10.0 | 0.00 | 0.00 | 0.00 | 85 | 1014.9 |
| 20260506201503 | 63 | 66 | 3.0 | 9.0 | 0.00 | 0.00 | 0.00 | 85 | 1015.1 |
| 20260506201004 | 63 | 64 | 3.0 | 6.0 | 0.00 | 0.00 | 0.00 | 85 | 1015.0 |
| 20260506200503 | 63 | 58 | 3.0 | 9.0 | 0.00 | 0.00 | 0.00 | 85 | 1014.9 |
| 20260506200005 | 63 | 53 | 3.0 | 9.0 | 0.00 | 0.00 | 0.00 | 85 | 1014.8 |
| 20260506195503 | 63 | 52 | 3.0 | 6.0 | 0.00 | 0.00 | 0.00 | 85 | 1014.3 |
| 20260506195003 | 63 | 57 | 3.0 | 13.0 | 0.00 | 0.00 | 0.00 | 85 | 1014.5 |
| 20260506194503 | 63 | 61 | 3.0 | 13.0 | 0.00 | 0.00 | 0.00 | 84 | 1014.5 |
| 20260506194004 | 63 | 61 | 2.0 | 6.0 | 0.00 | 0.00 | 0.00 | 85 | 1015.1 |
| 20260506193503 | 63 | 71 | 2.0 | 9.0 | 0.00 | 0.00 | 0.00 | 85 | 1015.4 |
| 20260506193003 | 63 | 63 | 2.0 | 9.0 | 0.00 | 0.00 | 0.00 | 85 | 1015.7 |
| 20260506192504 | 63 | 51 | 1.0 | 3.0 | 0.00 | 0.00 | 0.00 | 85 | 1015.8 |
| 20260506192003 | 63 | 51 | 1.0 | 4.0 | 0.00 | 0.00 | 0.00 | 85 | 1015.7 |
| 20260506191504 | 63 | 52 | 1.0 | 4.0 | 0.00 | 0.00 | 0.00 | 85 | 1016.0 |
| 20260506191004 | 63 | 72 | 1.0 | 7.0 | 0.00 | 0.00 | 0.00 | 85 | 1016.0 |
| 20260506190504 | 63 | 82 | 2.0 | 7.0 | 0.00 | 0.00 | 0.00 | 85 | 1016.0 |
| 20260506190004 | 63 | 101 | 2.0 | 6.0 | 0.00 | 0.00 | 0.00 | 85 | 1015.9 |
| 20260506185504 | 63 | 77 | 2.0 | 7.0 | 0.00 | 0.00 | 0.00 | 86 | 1015.9 |
| 20260506185004 | 63 | 67 | 2.0 | 7.0 | 0.00 | 0.00 | 0.00 | 86 | 1015.9 |
| 20260506184503 | 63 | 81 | 1.0 | 6.0 | 0.00 | 0.00 | 0.00 | 86 | 1015.9 |
| 20260506184215 | 63 | 86 | 1.0 | 6.0 | 0.00 | 0.00 | 0.00 | 86 | 1016.0 |